User: anonymous   Login
Location: Unspecified
(0.0000°N, 0.0000°E)
Time: 03:19:21
(UTC+00:00)
Language:

STARLINK-33666 - Orbit

View from above orbital plane
View from above orbital plane
View from above satellite
View from above satellite

Ground track
Ground track

The orbit is defined by the following mean orbital elements,

1 63592U          26145.55245938 +.00000000 +00000-0 +81300-3 0 00002
2 63592  43.0018 247.7790 0001342 282.3433  77.7269 15.27596594    05
Epoch (UTC): 25 May 2026 13:15:32
Eccentricity: 0.0001342
inclination: 43.0018°
perigee height: 482 km
apogee height: 484 km
right ascension of ascending node: 247.7790°
argument of perigee: 282.3433°
revolutions per day: 15.27596594
mean anomaly at epoch: 77.7269°

The dashed part of the orbit path shows where the satellite is in the earth's shadow,  

DLR